CW9754 Arroyo PR US current weather conditions

sailwx.info

Wind from 055 at 1 knots

Air temperature 27.2° C
Dewpoint 24.5° C

Last reported at 2020-Jul-14 06:05 UTC.
Time now 2020-Jul-14 06:47 UTC

Location: N 17°59' W 066°03'.
View on Google Maps.

See reports from other nearby stations

  
Tides and Currents Weather Stations Pressure Air Temp Water Temp Dewpoint Dewpoint Depression Visibility Wind Speed Wind Dir Waves Ship Positions
date/time (UTC)wind fromknots sea level pressurealtimeterstation pressurevisibilityair tempwater tempwave heightnotes
2020-Jul-14 06:05 055 1 27.2
2020-Jul-14 06:00 030 3 27.2
2020-Jul-14 05:55 060 2 27.2
2020-Jul-14 05:50 053 1 27.2
2020-Jul-14 05:45 051 2 27.2
2020-Jul-14 05:40 057 0 27.2
2020-Jul-14 05:35 070 1 27.2
2020-Jul-14 05:30 032 1 27.2
2020-Jul-14 05:20 060 1 27.2
2020-Jul-14 05:10 027 1 27.2
2020-Jul-14 05:05 070 4 27.2
2020-Jul-14 04:55 023 2 27.2
2020-Jul-14 04:50 086 27.2
2020-Jul-14 04:45 073 0 27.2
2020-Jul-14 04:40 054 1 27.2
2020-Jul-14 04:35 062 1 27.2
2020-Jul-14 04:30 055 1 27.2
2020-Jul-14 04:25 056 0 27.2
2020-Jul-14 04:10 065 0 gusting 3 27.8
2020-Jul-14 04:01 075 1 gusting 4 27.8
2020-Jul-14 03:55 056 0 gusting 3 27.8
2020-Jul-14 03:51 054 1 gusting 5 27.8
2020-Jul-14 03:47 044 2 gusting 5 27.8
2020-Jul-14 03:41 074 0 gusting 7 27.8
2020-Jul-14 03:36 066 0 gusting 7 27.8
2020-Jul-14 03:33 058 27.8
2020-Jul-14 03:26 084 1 gusting 5 27.8
2020-Jul-14 03:20 096 0 gusting 4 27.8
2020-Jul-14 03:10 054 2 gusting 6 27.8
2020-Jul-14 03:05 057 0 gusting 6 27.8
2020-Jul-14 03:01 069 1 gusting 6 27.8
2020-Jul-14 02:55 081 0 gusting 6 27.8
2020-Jul-14 02:50 056 0 gusting 6 27.8
2020-Jul-14 02:46 351 1 gusting 7 27.8
2020-Jul-14 02:40 086 2 gusting 7 27.8
2020-Jul-14 02:25 066 1 gusting 5 27.8
2020-Jul-14 02:20 014 0 gusting 5 27.8
2020-Jul-14 02:10 056 2 gusting 6 27.8
2020-Jul-14 02:05 098 2 gusting 6 27.8
2020-Jul-14 02:02 083 0 gusting 4 27.8
2020-Jul-14 01:55 065 0 gusting 5 27.8
2020-Jul-14 01:50 071 2 gusting 7 28.3
2020-Jul-14 01:45 044 0 gusting 7 28.3
2020-Jul-14 01:40 084 2 gusting 7 28.3
2020-Jul-14 01:35 079 2 gusting 6 28.3
2020-Jul-14 01:30 071 0 gusting 5 28.3
2020-Jul-14 01:25 039 1 gusting 5 28.3
2020-Jul-14 01:20 058 1 gusting 6 28.3
2020-Jul-14 01:10 071 1 gusting 6 28.3
2020-Jul-14 01:05 068 3 gusting 6 28.3
2020-Jul-14 01:01 075 1 gusting 6 28.3
2020-Jul-14 00:55 029 1 gusting 6 28.3
2020-Jul-14 00:50 027 1 gusting 6 28.3
2020-Jul-14 00:46 094 2 gusting 6 28.3
2020-Jul-14 00:40 059 3 gusting 6 28.3
2020-Jul-14 00:35 061 0 gusting 6 28.9
2020-Jul-14 00:31 068 2 gusting 10 28.9
2020-Jul-14 00:25 067 5 gusting 10 28.9
2020-Jul-14 00:20 088 2 gusting 6 28.9
2020-Jul-14 00:10 068 3 gusting 6 28.9
2020-Jul-14 00:05 060 2 gusting 5 28.9
2020-Jul-14 00:01 072 2 gusting 6 28.9
2020-Jul-13 23:55 066 3 gusting 6 28.9
2020-Jul-13 23:52 077 1 gusting 6 28.9
2020-Jul-13 23:40 063 2 gusting 5 28.9
2020-Jul-13 23:35 041 1 gusting 6 28.9
2020-Jul-13 23:30 062 2 gusting 6 28.9
2020-Jul-13 23:25 072 2 gusting 6 28.9
2020-Jul-13 23:20 069 2 gusting 5 28.9
2020-Jul-13 23:10 089 0 gusting 4 28.9
2020-Jul-13 23:05 085 0 gusting 5 28.9
2020-Jul-13 23:00 120 1 gusting 6 28.9
2020-Jul-13 22:55 094 1 gusting 6 28.9
2020-Jul-13 22:50 064 2 gusting 9 28.9
2020-Jul-13 22:46 061 3 gusting 8 29.4
2020-Jul-13 22:40 084 2 gusting 6 29.4
2020-Jul-13 22:35 057 1 gusting 6 29.4
2020-Jul-13 22:31 072 2 gusting 6 29.4
2020-Jul-13 22:25 073 2 gusting 6 29.4
2020-Jul-13 22:20 096 1 gusting 7 29.4
2020-Jul-13 22:10 101 3 gusting 6 29.4
2020-Jul-13 22:05 078 3 gusting 10 29.4
2020-Jul-13 22:03 104 6 gusting 10 30.0
2020-Jul-13 21:53 077 6 gusting 10 30.0
2020-Jul-13 21:46 109 5 gusting 10 30.0
2020-Jul-13 21:40 106 3 gusting 8 30.0
2020-Jul-13 21:35 086 3 gusting 11 30.0
2020-Jul-13 21:30 099 6 gusting 11 30.0
2020-Jul-13 21:25 080 2 gusting 9 30.0
2020-Jul-13 21:20 093 4 gusting 12 30.0
2020-Jul-13 21:10 073 6 gusting 12 30.0
2020-Jul-13 21:05 068 4 gusting 8 30.0
2020-Jul-13 21:00 069 4 gusting 10 30.6
2020-Jul-13 20:55 108 4 gusting 12 30.6
2020-Jul-13 20:50 134 5 gusting 12 30.6
2020-Jul-13 20:45 101 6 gusting 12 30.6
2020-Jul-13 20:40 097 6 gusting 10 30.6
2020-Jul-13 20:35 107 6 gusting 10 31.1
2020-Jul-13 20:30 124 5 gusting 10 31.1
2020-Jul-13 20:25 077 4 gusting 8 31.1
2020-Jul-13 20:20 079 5 gusting 8 31.1
2020-Jul-13 20:10 047 4 gusting 8 31.7
2020-Jul-13 20:05 108 5 gusting 9 31.7
2020-Jul-13 20:00 068 5 gusting 10 31.1
2020-Jul-13 19:55 072 4 gusting 11 31.1
2020-Jul-13 19:50 058 3 gusting 12 31.1
2020-Jul-13 19:40 122 5 gusting 12 31.7
2020-Jul-13 19:35 084 5 gusting 9 31.7
2020-Jul-13 19:25 114 6 gusting 12 31.7
2020-Jul-13 19:20 072 6 gusting 10 31.1
2020-Jul-13 19:11 085 5 gusting 10 31.7
2020-Jul-13 19:05 077 5 gusting 11 31.7
2020-Jul-13 19:01 150 6 gusting 11 31.7
2020-Jul-13 18:56 091 6 gusting 13 31.7
2020-Jul-13 18:50 100 6 gusting 13 31.7
2020-Jul-13 18:46 068 5 gusting 13 31.7
2020-Jul-13 18:40 119 6 gusting 13 31.7
2020-Jul-13 18:35 072 6 gusting 14 31.7
2020-Jul-13 18:31 125 8 gusting 14 31.7
2020-Jul-13 18:25 077 4 gusting 9 31.1
2020-Jul-13 18:20 069 5 gusting 11 31.1
2020-Jul-13 18:16 058 4 gusting 13 30.6
2020-Jul-13 18:10 013 4 gusting 13 30.6
2020-Jul-13 18:05 086 6 gusting 13 30.6
2020-Jul-13 18:02 039 6 gusting 13 30.6
2020-Jul-13 17:55 051 6 gusting 13 30.6
2020-Jul-13 17:50 066 3 gusting 13 30.6
2020-Jul-13 17:46 070 6 gusting 12 30.6
2020-Jul-13 17:40 100 6 gusting 13 30.6
2020-Jul-13 17:36 088 7 gusting 13 30.6
2020-Jul-13 17:31 129 6 gusting 13 30.6
2020-Jul-13 17:25 090 7 gusting 13 30.6
2020-Jul-13 17:20 094 8 gusting 13 30.6
2020-Jul-13 17:16 102 6 gusting 12 30.6
2020-Jul-13 17:10 101 6 gusting 12 30.6
2020-Jul-13 17:05 113 5 gusting 12 31.1
2020-Jul-13 17:02 101 3 gusting 7 31.7
2020-Jul-13 16:55 096 3 gusting 9 31.7
2020-Jul-13 16:50 087 4 gusting 9 31.1
2020-Jul-13 16:47 097 4 gusting 9 31.1
2020-Jul-13 16:40 075 4 gusting 9 31.1
2020-Jul-13 16:35 111 6 gusting 9 31.1
2020-Jul-13 16:32 082 4 gusting 8 31.1
2020-Jul-13 16:26 094 4 gusting 15 31.1
2020-Jul-13 16:20 080 4 gusting 15 31.7
2020-Jul-13 16:16 077 4 gusting 13 31.1
2020-Jul-13 16:10 097 4 gusting 13 31.1
2020-Jul-13 16:05 066 4 gusting 12 31.1
2020-Jul-13 16:01 092 4 gusting 12 31.1
2020-Jul-13 15:55 089 6 gusting 12 31.1
2020-Jul-13 15:51 025 4 gusting 10 31.1
2020-Jul-13 15:47 063 4 gusting 8 30.6
2020-Jul-13 15:40 092 4 gusting 8 30.6
2020-Jul-13 15:35 044 4 gusting 9 30.0
2020-Jul-13 15:31 064 3 gusting 9 30.0
2020-Jul-13 15:26 057 3 gusting 7 30.0
2020-Jul-13 15:21 042 1 gusting 10 30.0
2020-Jul-13 15:17 068 6 gusting 11 30.0
2020-Jul-13 15:10 084 6 gusting 11 30.0
2020-Jul-13 15:06 065 6 gusting 11 30.0
2020-Jul-13 15:01 060 6 gusting 13 30.6
2020-Jul-13 14:56 117 7 gusting 13 30.6
2020-Jul-13 14:50 071 5 gusting 12 30.6
2020-Jul-13 14:47 058 3 gusting 10 30.6
2020-Jul-13 14:41 117 4 gusting 13 30.6
2020-Jul-13 14:36 113 6 gusting 13 30.6
2020-Jul-13 14:31 101 6 gusting 15 30.6
2020-Jul-13 14:25 082 5 gusting 10 30.6
2020-Jul-13 14:20 084 6 gusting 11 30.0
2020-Jul-13 14:16 085 7 gusting 11 30.0
2020-Jul-13 14:10 074 7 gusting 11 30.0
2020-Jul-13 14:05 090 6 gusting 11 30.0
2020-Jul-13 14:01 099 3 gusting 9 30.0
2020-Jul-13 13:55 082 5 gusting 9 30.0
2020-Jul-13 13:50 071 5 gusting 9 30.0
2020-Jul-13 13:45 054 5 gusting 7 30.0
2020-Jul-13 13:40 072 3 gusting 7 30.0
2020-Jul-13 13:35 082 2 gusting 6 29.4
2020-Jul-13 13:31 066 3 gusting 6 29.4
2020-Jul-13 13:25 064 4 gusting 8 29.4
2020-Jul-13 13:20 085 5 gusting 11 29.4
2020-Jul-13 13:16 057 4 gusting 7 29.4
2020-Jul-13 13:10 091 3 gusting 7 29.4
2020-Jul-13 13:05 065 4 gusting 7 29.4
2020-Jul-13 13:01 094 4 gusting 8 29.4
2020-Jul-13 12:55 096 4 gusting 8 29.4
2020-Jul-13 12:51 054 2 gusting 9 28.9
2020-Jul-13 12:46 067 6 gusting 9 28.9
2020-Jul-13 12:41 062 1 gusting 6 28.9
2020-Jul-13 12:36 058 2 gusting 6 28.9
2020-Jul-13 12:31 033 2 gusting 6 28.3
2020-Jul-13 12:25 061 2 gusting 6 28.3
2020-Jul-13 12:20 059 2 gusting 6 28.3
2020-Jul-13 12:16 036 3 gusting 6 28.3
2020-Jul-13 12:11 084 3 gusting 6 28.3
2020-Jul-13 12:05 037 2 gusting 7 28.3
2020-Jul-13 12:03 044 2 gusting 7 27.8
2020-Jul-13 11:56 068 1 gusting 5 27.8
2020-Jul-13 11:50 051 1 gusting 5 27.8
2020-Jul-13 11:46 053 1 gusting 7 27.8
2020-Jul-13 11:40 072 4 gusting 7 27.2
2020-Jul-13 11:35 058 2 gusting 5 27.2
2020-Jul-13 11:30 021 0 gusting 6 27.2
2020-Jul-13 11:25 036 2 gusting 7 27.2
2020-Jul-13 11:21 072 3 gusting 7 26.7
2020-Jul-13 11:16 352 1 gusting 6 26.7
2020-Jul-13 11:10 053 1 gusting 6 26.7
2020-Jul-13 11:05 070 2 gusting 6 27.2
2020-Jul-13 11:01 062 2 gusting 6 27.2
2020-Jul-13 10:56 065 2 gusting 6 27.2
2020-Jul-13 10:50 062 2 gusting 6 27.2
2020-Jul-13 10:46 074 2 gusting 6 27.2
2020-Jul-13 10:40 068 2 gusting 6 27.2
2020-Jul-13 10:35 077 0 gusting 3 27.2
2020-Jul-13 10:31 058 1 gusting 4 27.2
2020-Jul-13 10:25 072 1 gusting 5 26.7
2020-Jul-13 10:20 057 0 gusting 5 27.2
2020-Jul-13 10:16 056 1 gusting 7 27.2
2020-Jul-13 10:10 065 1 gusting 7 27.2
2020-Jul-13 10:05 042 2 gusting 8 27.2
2020-Jul-13 10:01 081 2 gusting 8 27.2
2020-Jul-13 09:55 058 3 gusting 6 27.2
2020-Jul-13 09:50 035 2 gusting 7 27.2
2020-Jul-13 09:46 053 2 gusting 7 27.2
2020-Jul-13 09:40 070 2 gusting 6 27.2
2020-Jul-13 09:35 023 1 gusting 7 27.2
2020-Jul-13 09:31 059 2 gusting 6 27.2
2020-Jul-13 09:25 028 1 gusting 6 26.7
2020-Jul-13 09:20 058 0 gusting 6 26.7
2020-Jul-13 09:16 050 0 gusting 4 26.7
2020-Jul-13 09:10 039 0 gusting 4 26.7
2020-Jul-13 09:05 043 0 gusting 6 26.7
2020-Jul-13 09:00 065 0 gusting 6 26.7
2020-Jul-13 08:55 037 0 gusting 4 26.7
2020-Jul-13 08:50 038 1 gusting 4 26.7
2020-Jul-13 08:46 039 0 gusting 2 26.7
2020-Jul-13 08:40 065 0 gusting 4 27.2
2020-Jul-13 08:36 062 1 gusting 4 27.2
2020-Jul-13 08:31 084 0 gusting 4 27.2
2020-Jul-13 08:25 048 1 gusting 5 26.7
2020-Jul-13 08:20 053 1 gusting 5 26.7
2020-Jul-13 08:16 058 2 gusting 5 26.7
2020-Jul-13 08:11 030 1 gusting 5 26.7
2020-Jul-13 08:05 068 0 gusting 5 26.7
2020-Jul-13 08:00 064 2 gusting 5 26.7
2020-Jul-13 07:55 048 1 gusting 4 26.7
2020-Jul-13 07:51 013 1 gusting 5 26.7
2020-Jul-13 07:46 081 1 gusting 5 26.7
2020-Jul-13 07:40 034 0 gusting 5 26.7
2020-Jul-13 07:35 075 1 gusting 5 26.7
2020-Jul-13 07:31 048 0 gusting 4 27.2
2020-Jul-13 07:25 051 1 gusting 6 27.2
2020-Jul-13 07:20 054 1 gusting 6 26.7
2020-Jul-13 07:16 070 27.2
2020-Jul-13 07:10 072 27.2
2020-Jul-13 07:05 067 1 gusting 7 27.2
2020-Jul-13 07:01 044 1 gusting 7 27.2
2020-Jul-13 06:55 079 2 gusting 7 27.2
2020-Jul-13 06:50 037 3 gusting 7 27.2
2020-Jul-13 06:46 063 1 gusting 5 26.7
2020-Jul-13 06:40 060 1 gusting 7 26.7
2020-Jul-13 06:35 043 2 gusting 7 27.2
2020-Jul-13 06:32 048 2 gusting 6 27.2
2020-Jul-13 06:25 054 2 gusting 6 26.7
2020-Jul-13 06:20 015 2 gusting 6 27.2
2020-Jul-13 06:15 034 1 gusting 5 26.7
2020-Jul-13 06:10 048 2 gusting 5 26.7
2020-Jul-13 06:05 050 0 gusting 6 26.7
2020-Jul-13 06:01 060 1 gusting 6 26.7
2020-Jul-13 05:55 053 1 gusting 3 26.7
2020-Jul-13 05:50 074 0 gusting 3 26.7
2020-Jul-13 05:47 053 0 gusting 4 27.2
2020-Jul-13 05:40 058 1 gusting 7 27.2
2020-Jul-13 05:35 061 2 gusting 7 27.2
2020-Jul-13 05:30 049 1 gusting 3 26.7
2020-Jul-13 05:25 052 1 gusting 4 27.2
2020-Jul-13 05:20 067 1 gusting 4 27.2
2020-Jul-13 05:16 052 1 gusting 5 27.2
2020-Jul-13 05:10 050 2 gusting 5 27.2
2020-Jul-13 05:05 048 1 gusting 5 27.2
2020-Jul-13 05:00 066 1 gusting 6 27.2
2020-Jul-13 04:55 063 1 gusting 6 27.2
2020-Jul-13 04:50 049 1 gusting 6 27.2
2020-Jul-13 04:47 063 1 gusting 6 27.2
2020-Jul-13 04:40 068 0 gusting 4 27.2
2020-Jul-13 04:35 044 0 gusting 4 27.2
2020-Jul-13 04:30 027 0 gusting 3 27.2
2020-Jul-13 04:25 034 1 gusting 3 27.2
2020-Jul-13 04:20 049 27.2
2020-Jul-13 04:16 065 1 gusting 8 27.8
2020-Jul-13 04:10 048 2 gusting 8 27.8
2020-Jul-13 04:05 077 1 gusting 4 27.2
2020-Jul-13 04:00 044 1 gusting 3 27.2
2020-Jul-13 03:55 030 27.2
2020-Jul-13 03:50 032 1 gusting 7 27.2
2020-Jul-13 03:45 058 0 gusting 3 27.2
2020-Jul-13 03:40 062 27.2
2020-Jul-13 03:35 055 27.2
2020-Jul-13 03:30 013 0 gusting 5 27.2
2020-Jul-13 03:25 061 1 gusting 5 27.2
2020-Jul-13 03:20 052 27.8
2020-Jul-13 03:15 355 1 gusting 6 27.8
2020-Jul-13 03:10 061 1 gusting 6 27.8
2020-Jul-13 03:05 075 1 gusting 5 27.8
2020-Jul-13 03:00 051 1 gusting 5 27.8
2020-Jul-13 02:55 064 1 gusting 5 27.8
2020-Jul-13 02:50 062 1 gusting 7 27.8
2020-Jul-13 02:45 088 5 gusting 7 27.8
2020-Jul-13 02:40 065 1 gusting 5 27.2
2020-Jul-13 02:35 042 0 gusting 5 27.8
2020-Jul-13 02:30 057 0 gusting 6 27.2
2020-Jul-13 02:25 059 2 gusting 6 27.2
2020-Jul-13 02:20 058 1 gusting 5 27.2
2020-Jul-13 02:15 046 0 gusting 2 27.2
2020-Jul-13 02:10 033 0 gusting 2 27.2
2020-Jul-13 02:05 043 0 gusting 3 27.2
2020-Jul-13 01:55 034 1 gusting 6 27.8
2020-Jul-13 01:45 064 0 gusting 5 27.8
2020-Jul-13 01:40 072 27.8
2020-Jul-13 01:30 051 0 gusting 3 27.2
2020-Jul-13 01:25 012 0 gusting 2 27.2
2020-Jul-13 01:20 060 0 gusting 3 27.8
2020-Jul-13 01:15 023 1 gusting 4 27.8
2020-Jul-13 01:05 037 0 gusting 3 27.8
2020-Jul-13 00:55 055 27.8
2020-Jul-13 00:45 071 1 gusting 5 27.8
2020-Jul-13 00:40 068 2 gusting 5 27.8
2020-Jul-13 00:30 068 0 gusting 6 27.8
2020-Jul-13 00:25 048 1 gusting 6 27.8
2020-Jul-13 00:20 053 2 gusting 6 27.8
2020-Jul-13 00:10 073 0 gusting 6 27.8
2020-Jul-13 00:05 025 2 gusting 7 27.8
2020-Jul-13 00:00 048 2 gusting 7 27.8
2020-Jul-12 23:55 085 3 gusting 7 28.3
2020-Jul-12 23:50 025 2 gusting 6 27.8
2020-Jul-12 23:40 053 1 gusting 6 27.8
2020-Jul-12 23:35 001 1 gusting 6 27.8
2020-Jul-12 23:25 069 1 gusting 7 28.3
2020-Jul-12 23:20 056 1 gusting 7 28.3
2020-Jul-12 23:10 061 1 gusting 6 28.3
2020-Jul-12 23:05 060 0 gusting 4 28.3
2020-Jul-12 22:55 077 1 gusting 6 28.3
2020-Jul-12 22:50 084 1 gusting 6 28.3
2020-Jul-12 22:45 069 2 gusting 6 28.9
2020-Jul-12 22:40 065 2 gusting 7 28.9
2020-Jul-12 22:35 035 3 gusting 7 28.9
2020-Jul-12 22:30 067 2 gusting 6 28.9
2020-Jul-12 22:25 068 4 gusting 6 28.9
2020-Jul-12 22:15 080 3 gusting 6 29.4
2020-Jul-12 22:10 117 3 gusting 6 29.4
2020-Jul-12 22:05 095 1 gusting 8 29.4
2020-Jul-12 22:00 086 5 gusting 8 29.4
2020-Jul-12 21:55 053 4 gusting 9 29.4
2020-Jul-12 21:50 038 5 gusting 9 29.4
2020-Jul-12 21:45 065 2 gusting 8 29.4
2020-Jul-12 21:40 117 3 gusting 7 29.4
2020-Jul-12 21:35 069 1 gusting 5 29.4
2020-Jul-12 21:30 117 2 gusting 8 29.4
2020-Jul-12 21:21 062 2 gusting 6 29.4
2020-Jul-12 21:17 070 4 gusting 7 29.4
2020-Jul-12 21:06 096 3 gusting 6 30.0
2020-Jul-12 21:02 080 3 gusting 6 30.0
2020-Jul-12 20:55 073 2 gusting 8 29.4
2020-Jul-12 20:50 061 3 gusting 9 29.4
2020-Jul-12 20:46 104 5 gusting 9 29.4
2020-Jul-12 20:40 100 2 gusting 7 29.4
2020-Jul-12 20:35 079 4 gusting 10 29.4
2020-Jul-12 20:31 101 5 gusting 7 29.4
2020-Jul-12 20:25 077 4 gusting 7 30.0
2020-Jul-12 20:21 115 3 gusting 6 29.4
2020-Jul-12 20:16 115 1 gusting 7 28.9
2020-Jul-12 20:01 094 0 gusting 4 28.3
2020-Jul-12 19:55 039 1 gusting 4 28.3
2020-Jul-12 19:50 065 1 gusting 6 28.3
2020-Jul-12 19:46 054 2 gusting 6 28.3
2020-Jul-12 19:40 065 1 gusting 6 27.8
2020-Jul-12 19:36 069 0 gusting 6 27.8
2020-Jul-12 19:31 072 1 gusting 8 27.8
2020-Jul-12 19:25 090 4 gusting 10 28.3
2020-Jul-12 19:20 107 5 gusting 14 28.9
2020-Jul-12 19:18 093 7 gusting 14 31.1
2020-Jul-12 19:05 065 4 gusting 9 31.7
2020-Jul-12 19:01 058 3 gusting 9 31.1
2020-Jul-12 18:55 160 4 gusting 9 31.1
2020-Jul-12 18:50 120 6 gusting 12 31.1
2020-Jul-12 18:46 070 6 gusting 12 31.1
2020-Jul-12 18:40 122 6 gusting 12 31.1
2020-Jul-12 18:35 113 6 gusting 12 31.1
2020-Jul-12 18:31 111 4 gusting 13 31.1
2020-Jul-12 18:25 094 6 gusting 13 31.1
2020-Jul-12 18:20 100 5 gusting 12 31.1
2020-Jul-12 18:16 100 5 gusting 11 31.1
2020-Jul-12 18:05 080 5 gusting 11 31.1
2020-Jul-12 18:01 094 5 gusting 12 31.1
2020-Jul-12 17:55 101 4 gusting 11 31.1
2020-Jul-12 17:50 125 6 gusting 11 31.1
2020-Jul-12 17:46 097 6 gusting 11 31.1
2020-Jul-12 17:40 125 6 gusting 12 31.1
2020-Jul-12 17:36 075 6 gusting 12 31.1
2020-Jul-12 17:31 127 6 gusting 12 31.1
2020-Jul-12 17:25 088 5 gusting 12 31.1
2020-Jul-12 17:20 078 4 gusting 10 31.1
2020-Jul-12 17:16 091 5 gusting 10 30.6
2020-Jul-12 17:05 142 4 gusting 10 30.6
2020-Jul-12 17:01 076 4 gusting 9 30.6
2020-Jul-12 16:55 065 5 gusting 9 31.1
2020-Jul-12 16:50 111 4 gusting 8 30.6
2020-Jul-12 16:45 084 3 gusting 10 30.6
2020-Jul-12 16:41 063 5 gusting 9 30.6
2020-Jul-12 16:35 091 4 gusting 9 30.0
2020-Jul-12 16:31 072 5 gusting 7 30.0
2020-Jul-12 16:25 086 3 gusting 7 30.0
2020-Jul-12 16:20 108 3 gusting 6 30.0
2020-Jul-12 16:16 082 2 gusting 6 30.0
2020-Jul-12 16:05 077 4 gusting 6 30.0
2020-Jul-12 16:02 073 3 gusting 6 30.0
2020-Jul-12 15:56 047 3 gusting 6 30.0
2020-Jul-12 15:50 112 3 gusting 6 30.0
2020-Jul-12 15:46 103 3 gusting 8 30.0
2020-Jul-12 15:41 155 3 gusting 8 30.0
2020-Jul-12 15:35 098 3 gusting 9 30.0
2020-Jul-12 15:31 079 2 gusting 9 30.0
2020-Jul-12 15:25 154 4 gusting 8 30.0
2020-Jul-12 15:20 074 3 gusting 8 30.0
2020-Jul-12 15:16 070 1 gusting 7 29.4
2020-Jul-12 15:05 077 2 gusting 6 29.4
2020-Jul-12 15:01 082 2 gusting 8 29.4
2020-Jul-12 14:55 049 3 gusting 7 29.4
2020-Jul-12 14:50 059 1 gusting 6 29.4
2020-Jul-12 14:46 069 2 gusting 6 28.9
2020-Jul-12 14:40 064 2 gusting 6 28.9
2020-Jul-12 14:35 057 2 gusting 9 28.9
2020-Jul-12 14:31 008 3 gusting 9 28.9
2020-Jul-12 14:25 060 2 gusting 7 28.3
2020-Jul-12 14:21 057 2 gusting 9 28.3
2020-Jul-12 14:16 046 3 gusting 8 28.3
2020-Jul-12 14:05 054 3 gusting 8 28.3
2020-Jul-12 14:02 096 2 gusting 7 28.3
2020-Jul-12 13:55 077 3 gusting 6 28.3
2020-Jul-12 13:50 052 3 gusting 7 28.3
2020-Jul-12 13:47 071 2 gusting 6 28.9
2020-Jul-12 13:40 075 2 gusting 5 28.9
2020-Jul-12 13:35 056 2 gusting 6 28.3
2020-Jul-12 13:31 049 1 gusting 6 28.3
2020-Jul-12 13:25 066 3 gusting 6 28.3
2020-Jul-12 13:20 039 2 gusting 6 28.3
2020-Jul-12 13:16 068 3 gusting 6 28.3
2020-Jul-12 13:05 049 1 gusting 6 28.3
2020-Jul-12 13:01 068 2 gusting 6 27.8
2020-Jul-12 12:55 044 2 gusting 5 27.8
2020-Jul-12 12:50 046 2 gusting 5 27.8
2020-Jul-12 12:46 053 2 gusting 5 27.8
2020-Jul-12 12:40 045 0 gusting 4 27.2
2020-Jul-12 12:35 072 0 gusting 4 27.2
2020-Jul-12 12:31 062 1 gusting 5 27.2
2020-Jul-12 12:25 358 1 gusting 5 26.7
2020-Jul-12 12:20 072 0 gusting 5 26.7
2020-Jul-12 12:15 046 0 gusting 3 26.7
2020-Jul-12 12:05 081 0 gusting 3 26.7
2020-Jul-12 12:01 049 0 gusting 3 26.1
2020-Jul-12 11:55 054 0 gusting 2 26.1
2020-Jul-12 11:50 029 0 gusting 3 26.1
2020-Jul-12 11:45 037 1 gusting 3 26.1
2020-Jul-12 11:40 018 0 gusting 2 26.1
2020-Jul-12 11:35 021 0 gusting 2 25.6
2020-Jul-12 11:31 022 25.6
2020-Jul-12 11:25 005 0 gusting 5 25.6
2020-Jul-12 11:20 021 0 gusting 3 25.6
2020-Jul-12 11:15 015 0 gusting 3 25.6
2020-Jul-12 11:05 053 0 gusting 3 25.0
2020-Jul-12 11:00 341 25.6
2020-Jul-12 10:55 011 25.6
2020-Jul-12 10:50 129 25.0
2020-Jul-12 10:46 176 25.0
2020-Jul-12 10:40 166 25.0
2020-Jul-12 10:35 221 25.0
2020-Jul-12 10:30 228 25.0
2020-Jul-12 10:25 027 25.0
2020-Jul-12 10:20 027 25.0
2020-Jul-12 10:15 358 25.0
2020-Jul-12 10:05 017 25.0
2020-Jul-12 10:00 018 25.0
2020-Jul-12 09:55 356 0 gusting 2 25.0
2020-Jul-12 09:50 038 25.0
2020-Jul-12 09:45 023 0 gusting 2 25.0
2020-Jul-12 09:40 045 0 gusting 2 24.4
2020-Jul-12 09:35 031 0 gusting 2 24.4
2020-Jul-12 09:31 005 0 gusting 2 24.4
2020-Jul-12 09:25 049 25.0
2020-Jul-12 09:20 022 0 gusting 4 25.0
2020-Jul-12 09:15 031 25.0
2020-Jul-12 09:05 023 0 gusting 2 25.0
2020-Jul-12 09:01 026 25.0
2020-Jul-12 08:55 011 0 gusting 2 25.0
2020-Jul-12 08:50 024 25.0
2020-Jul-12 08:46 037 25.0
2020-Jul-12 08:40 039 25.0
2020-Jul-12 08:35 008 25.0
2020-Jul-12 08:30 002 0 gusting 2 25.0
2020-Jul-12 08:25 006 25.0
2020-Jul-12 08:20 008 25.0
2020-Jul-12 08:15 001 24.4
2020-Jul-12 08:05 023 24.4
2020-Jul-12 08:01 018 24.4
2020-Jul-12 07:55 025 0 gusting 3 24.4
2020-Jul-12 07:51 004 24.4
2020-Jul-12 07:46 037 0 gusting 3 24.4
2020-Jul-12 07:40 023 24.4
2020-Jul-12 07:35 048 0 gusting 3 24.4
2020-Jul-12 07:31 014 0 gusting 3 24.4
2020-Jul-12 07:25 038 0 gusting 3 24.4
2020-Jul-12 07:20 008 24.4
2020-Jul-12 07:15 055 0 gusting 4 24.4
2020-Jul-12 07:10 045 0 gusting 3 24.4
2020-Jul-12 07:05 025 24.4
2020-Jul-12 07:00 359 24.4
2020-Jul-12 06:55 359 24.4
2020-Jul-12 06:50 023 24.4
2020-Jul-12 06:47 001 0 gusting 3 24.4
2020-Jul-12 06:35 011 24.4
2020-Jul-12 06:31 349 0 gusting 3 24.4
2020-Jul-12 06:25 014 24.4
2020-Jul-12 06:20 009 0 gusting 5 24.4
2020-Jul-12 06:10 051 1 gusting 6 25.0
2020-Jul-12 06:05 074 1 gusting 6 25.0
2020-Jul-12 06:00 068 25.0